Wind_Speed
26 25 24 25 25 24 26 25 23 23 23 23 23 22 22 22 21 19 19 21 21 20 20 20 20 20 20 20 20 20 20 18 17 17 17 16 15 14 13 12 11 9 7 7 8 10 11 11 12 11 11 11 11 12 12 12 12 11 10 9 10 11 11 10 12 14 16 17 18 16 14 14 12 12 12 11 11 10 8 7 6 4 4 6 5
27 28 28 26 24 24 26 26 25 24 23 23 24 23 22 21 20 19 19 20 19 19 19 19 20 20 20 19 19 18 18 17 16 15 14 14 13 12 11 10 8 7 6 7 9 10 10 11 11 11 11 11 11 12 11 12 13 12 10 9 8 9 10 11 12 13 17 20 21 19 17 16 15 14 14 14 14 13 12 12 11 10 10 10 9
29 30 29 26 24 23 25 26 27 25 23 24 23 21 20 19 19 19 19 19 18 18 18 18 19 19 19 18 17 17 16 15 14 13 12 11 11 10 9 8 7 6 7 8 9 10 10 10 10 11 11 11 11 11 11 12 13 13 11 9 7 7 8 10 11 12 16 20 22 21 20 19 17 16 16 16 15 13 14 14 13 12 12 12 11
30 31 30 28 25 23 24 26 27 26 23 22 22 20 19 18 18 19 19 19 18 18 17 17 18 18 17 17 16 15 15 14 13 12 10 9 9 8 8 7 7 7 8 9 9 9 9 9 9 10 10 11 11 11 11 12 12 12 12 10 9 7 7 8 9 10 14 18 21 22 21 21 19 17 16 16 15 14 14 14 13 12 11 11 10
30 31 31 29 26 23 24 26 27 26 23 20 20 20 19 19 18 19 19 18 17 16 16 16 16 16 16 15 15 14 14 13 12 11 10 9 8 8 7 6 6 7 8 9 9 8 8 8 9 9 10 10 10 11 11 12 12 13 13 12 11 8 7 7 8 8 11 15 19 21 21 22 21 19 16 15 15 15 14 14 14 13 12 11 11
30 30 31 29 26 24 24 25 27 26 22 21 20 19 19 18 18 18 19 18 16 15 15 15 15 15 14 14 14 14 13 12 11 10 10 9 9 8 7 6 6 7 7 8 7 7 7 8 9 9 9 10 10 10 11 12 13 13 13 12 11 10 8 8 8 9 10 12 15 18 20 22 22 21 17 14 14 14 14 15 14 14 13 12 12
30 29 30 29 26 25 24 24 26 26 23 23 22 20 19 17 16 18 18 17 15 14 15 14 14 14 14 14 13 13 12 12 11 10 10 10 9 8 7 7 6 7 7 7 6 6 7 7 8 8 9 9 9 9 11 12 12 12 11 10 9 9 9 9 9 9 10 11 12 15 18 20 21 21 19 14 12 12 12 13 14 14 13 12 11
29 29 30 29 26 25 24 25 25 25 24 23 22 20 18 17 17 17 17 16 15 14 14 13 13 13 13 13 13 13 12 12 11 11 10 10 9 8 8 7 7 7 6 5 5 5 6 7 7 7 8 9 9 9 10 11 10 10 9 7 7 6 6 8 10 9 9 10 11 13 16 19 21 21 19 16 11 10 10 10 12 13 12 11 10
29 28 28 26 25 25 24 24 24 24 24 23 21 19 18 17 18 17 16 15 14 13 12 13 13 13 14 14 14 13 13 12 11 11 10 10 9 8 8 7 7 6 5 4 3 5 6 6 6 7 8 8 9 10 10 10 11 11 10 8 7 7 5 6 8 10 9 9 10 12 15 18 20 21 19 17 12 8 7 8 9 10 11 10 9
28 26 25 23 23 24 23 23 23 22 22 22 21 19 18 18 18 17 15 14 13 13 12 13 13 14 14 14 14 13 13 12 11 11 10 9 9 8 7 6 5 4 3 2 2 4 5 6 7 7 7 9 9 10 11 11 11 11 12 12 10 9 8 6 6 9 10 9 9 11 14 17 20 20 19 17 13 8 6 6 7 8 9 9 8
25 23 22 22 21 22 21 22 22 20 19 19 19 17 17 18 18 16 15 14 14 13 13 14 15 15 15 15 14 14 13 12 12 11 10 9 8 7 5 4 3 2 1 0 1 3 4 5 7 7 8 9 10 10 11 11 10 11 11 11 11 10 10 9 6 8 9 8 8 9 11 15 18 19 18 17 14 9 5 4 5 6 7 7 7
22 21 21 20 20 20 20 19 19 18 17 18 17 16 16 16 16 16 15 15 15 14 14 14 15 15 15 15 15 14 14 13 12 11 10 8 7 6 4 3 2 1 1 1 1 3 5 6 7 7 8 9 9 9 9 9 9 9 9 9 11 10 9 9 8 8 8 7 7 8 9 13 16 17 17 16 14 11 7 5 5 6 6 6 7
19 19 19 18 17 18 18 17 17 16 16 16 16 15 15 14 15 15 15 15 15 14 14 14 15 14 14 14 14 14 13 12 11 9 8 7 6 4 3 2 1 1 1 2 2 4 5 6 7 7 7 7 8 7 6 7 8 8 8 9 9 9 9 8 8 8 7 7 7 8 9 11 14 16 15 15 14 12 9 7 7 6 6 6 7
17 17 17 17 15 15 15 16 16 15 15 15 15 15 14 14 14 14 14 14 14 14 14 14 14 13 13 13 13 12 11 10 9 8 6 5 3 2 1 1 2 3 3 4 4 4 4 4 5 5 6 6 6 6 5 4 5 8 9 9 8 9 9 7 7 8 7 7 7 8 9 10 12 14 14 13 13 12 10 8 8 8 7 6 7
15 15 15 15 15 15 14 13 14 14 14 14 15 15 14 14 13 13 13 13 12 12 13 12 13 12 12 12 12 11 10 8 7 5 4 3 1 0 1 2 3 3 4 4 4 3 2 2 2 3 3 4 5 6 6 5 3 6 8 8 7 7 9 7 6 7 7 7 7 7 9 9 10 12 12 11 12 11 10 8 8 9 8 6 6
15 14 14 14 14 13 12 11 12 12 13 13 14 14 14 14 13 12 12 12 11 11 11 11 11 11 11 10 10 9 7 6 5 4 2 1 0 2 2 2 2 3 3 2 2 1 1 1 1 1 1 1 4 6 7 8 6 5 6 7 6 6 7 7 6 6 7 7 6 6 7 8 8 9 10 10 10 10 9 8 7 8 8 7 7
15 14 13 14 13 11 11 10 9 10 12 12 13 13 13 14 13 12 11 11 11 10 10 10 10 10 9 9 8 7 6 5 4 3 1 0 2 3 3 2 2 2 2 2 1 1 0 2 3 2 2 1 3 6 7 9 8 6 7 7 5 5 6 6 5 5 7 6 6 6 5 5 5 7 8 8 9 9 9 8 7 7 7 8 7
15 13 12 13 12 11 11 9 8 9 10 11 12 12 12 13 12 11 11 10 10 9 9 9 8 8 7 7 7 6 5 5 4 3 1 1 1 2 2 2 3 2 2 2 2 2 3 5 1 3 1 2 4 7 9 11 12 9 9 8 4 4 4 3 4 4 5 5 5 5 4 4 3 5 7 7 8 8 8 8 8 7 7 8 8
14 13 12 12 11 11 10 8 8 8 9 11 12 12 11 11 11 11 10 10 9 9 8 8 8 7 7 7 7 6 6 5 4 3 2 1 1 1 2 2 2 2 2 1 2 3 5 6 6 7 4 5 6 7 9 12 14 13 12 9 5 3 2 2 2 4 4 5 5 4 3 3 2 2 4 6 6 6 7 7 8 7 7 7 8
14 13 11 11 11 11 10 8 8 7 7 10 11 11 11 10 10 10 10 9 8 8 7 8 8 8 7 7 7 6 6 5 4 3 3 2 0 1 1 2 3 2 2 2 3 4 6 6 8 8 5 5 7 7 8 10 12 13 13 10 7 5 4 3 2 3 3 2 2 1 2 2 1 0 1 3 5 5 5 6 7 7 7 7 8
14 13 12 11 11 10 9 8 7 6 6 7 7 9 8 8 7 7 8 8 7 7 7 7 7 7 7 6 6 6 5 4 4 4 3 3 2 2 2 2 3 3 4 4 5 5 7 8 8 6 5 3 5 7 8 8 9 10 11 10 8 6 6 6 5 5 3 1 1 1 1 2 1 1 1 2 3 3 4 5 5 7 7 6 7
13 12 12 12 11 10 9 8 6 5 7 7 6 6 6 6 6 4 5 5 5 5 6 6 6 6 5 5 5 5 3 3 3 3 3 3 2 3 3 4 4 5 5 5 5 5 7 8 7 6 6 5 6 8 9 9 10 11 11 10 8 7 7 7 7 7 6 5 2 1 1 1 1 2 2 2 1 2 3 4 4 5 6 5 6
12 11 11 11 11 11 10 9 8 6 7 7 7 7 6 5 5 4 4 4 4 4 5 5 5 5 5 5 4 3 2 2 2 3 4 3 3 4 5 6 6 6 6 6 6 5 6 7 7 6 7 7 9 10 11 12 12 11 11 10 10 8 7 7 8 7 7 7 5 3 2 0 0 2 3 4 2 1 1 2 3 3 4 4 4
11 10 10 10 10 11 11 10 9 8 8 8 7 7 7 5 5 5 4 4 4 4 4 4 4 4 4 5 3 3 2 2 3 4 5 4 4 4 5 6 7 7 6 6 6 5 5 6 6 7 6 8 11 12 13 13 13 12 12 12 11 11 9 9 9 8 8 7 7 6 5 2 2 3 4 5 5 3 2 0 1 2 3 3 3
11 10 10 10 10 10 10 10 10 10 10 9 8 8 7 6 5 5 5 5 5 5 5 4 4 4 4 5 4 3 3 4 4 6 6 6 5 5 5 6 7 7 7 7 7 7 6 6 7 7 8 10 12 13 13 13 14 14 13 13 13 12 12 11 11 10 9 8 7 7 7 5 3 4 5 5 7 6 5 3 1 1 2 2 2
11 10 9 9 10 10 10 11 10 10 10 10 9 8 8 7 6 6 6 6 6 6 6 5 5 4 4 5 5 4 5 5 5 6 7 7 7 7 7 8 8 8 7 7 8 8 8 8 9 9 10 12 13 14 14 15 15 16 16 15 14 14 13 13 13 12 12 11 9 8 8 8 6 5 6 7 7 8 7 6 4 3 2 2 1
9 9 10 10 9 9 10 10 10 10 10 11 10 9 9 8 7 7 7 7 7 7 7 7 5 5 5 5 6 6 6 6 6 7 7 7 8 8 8 9 9 9 8 8 9 9 9 10 11 12 13 14 15 16 16 17 18 18 18 17 17 16 15 15 14 13 13 13 12 10 9 9 9 7 7 8 8 9 9 8 7 6 4 3 2
10 10 10 9 8 8 9 9 9 10 10 10 9 9 8 8 7 7 6 7 7 8 8 7 6 5 5 6 7 7 7 7 7 8 8 8 9 9 10 10 11 10 10 9 10 10 12 13 14 15 17 17 18 18 18 19 20 21 20 19 19 19 19 18 17 15 14 14 14 12 11 9 10 10 9 9 9 10 10 10 9 7 6 5 4
10 10 9 8 8 8 8 9 9 9 9 9 9 8 8 7 7 7 7 7 7 8 8 7 6 6 6 7 7 8 8 8 8 8 9 10 10 10 11 12 11 11 10 10 10 12 13 15 17 18 19 20 20 20 20 21 22 22 21 20 20 22 22 21 20 18 15 14 14 14 13 11 10 10 11 11 11 11 11 11 11 10 9 8 6
10 10 9 9 9 9 8 9 9 9 8 8 8 8 8 7 7 7 7 7 8 8 7 7 6 6 7 7 7 8 9 9 9 9 10 11 11 12 12 12 12 11 10 10 11 13 15 16 18 19 20 20 21 21 21 22 22 22 22 22 23 25 24 23 21 20 17 15 14 14 13 12 11 11 11 12 12 12 12 12 12 11 9 9 10
11 10 9 10 10 8 9 10 10 9 8 8 9 9 9 9 9 9 8 8 9 8 7 7 6 6 7 7 7 8 9 9 10 10 11 12 12 12 12 12 12 11 10 12 13 15 17 18 18 19 19 20 20 21 22 22 22 22 23 23 24 24 23 22 21 21 19 17 15 14 13 12 12 12 12 12 13 14 14 13 13 13 12 12 13
8 8 9 9 9 9 10 10 10 9 8 9 9 9 9 10 10 10 10 10 9 8 8 7 6 5 6 7 8 8 9 10 10 11 11 12 12 12 12 12 12 11 12 14 16 18 19 19 20 21 21 21 21 21 21 21 21 21 22 22 21 21 21 21 21 21 20 19 17 15 14 13 12 13 13 13 14 15 14 14 14 15 14 15 15
8 9 9 8 9 10 10 10 10 9 9 10 10 10 10 9 10 11 11 11 10 9 9 8 7 6 6 7 9 9 10 10 11 11 11 12 13 13 13 13 13 13 14 16 18 19 20 19 21 23 23 23 22 22 21 19 18 18 18 18 18 18 18 19 19 20 21 20 19 17 16 14 13 13 13 14 15 14 13 14 15 16 17 17 16
9 10 8 7 9 10 10 10 9 10 10 11 10 10 10 10 10 11 12 11 11 10 9 9 8 7 7 8 10 10 11 11 12 12 12 13 14 14 14 15 15 16 17 18 19 20 20 20 22 24 24 22 22 20 19 17 15 15 16 17 17 16 15 16 17 19 20 20 20 19 17 16 15 14 14 15 16 13 13 13 14 16 18 18 18
10 9 8 9 10 9 8 8 9 10 11 11 11 11 11 11 10 10 11 11 11 10 10 9 7 8 9 10 10 11 11 11 12 13 13 13 14 15 17 18 18 18 19 20 20 20 21 22 24 23 22 20 18 16 14 13 13 14 15 16 16 16 15 15 16 17 18 19 20 19 19 18 17 16 15 16 16 14 14 14 13 15 18 18 17
9 9 10 11 10 9 8 8 9 10 11 11 11 11 11 11 10 9 9 9 9 9 9 8 7 9 10 10 11 12 11 11 13 14 14 15 15 17 19 20 20 20 21 21 22 22 22 24 24 21 19 17 14 13 11 11 12 13 14 14 14 15 15 15 15 16 16 17 18 19 20 20 19 18 17 17 18 16 16 16 16 16 17 18 18
10 10 11 10 9 8 8 7 8 9 10 10 10 10 12 12 9 8 7 7 8 9 9 9 8 10 12 10 10 12 11 11 14 15 16 17 17 18 19 20 20 21 23 23 23 23 22 22 21 19 17 15 14 12 10 11 12 12 12 11 11 12 12 14 14 14 14 15 16 17 19 21 21 21 19 19 20 19 18 17 17 17 17 18 19
12 10 10 10 10 10 9 8 9 10 10 9 9 10 10 11 9 7 8 8 9 10 9 8 9 11 13 11 10 11 12 15 18 17 16 17 17 18 20 21 22 24 24 24 24 23 21 20 18 16 15 14 15 13 10 12 13 12 11 10 10 10 10 12 13 14 15 15 16 15 16 17 19 21 21 21 21 22 22 20 18 19 20 21 22
12 11 10 11 12 11 11 10 10 10 10 9 9 8 9 11 9 8 8 9 10 10 9 9 11 11 11 12 13 13 16 19 19 17 15 15 17 20 22 23 24 24 23 22 22 20 18 17 16 15 14 14 14 12 10 12 14 13 12 11 10 10 10 11 12 13 15 16 16 16 15 14 15 17 19 21 21 21 22 22 20 21 22 23 23
12 11 12 12 12 11 10 11 10 10 9 9 8 7 8 9 8 8 8 9 10 10 10 10 12 11 9 11 13 15 18 17 16 16 16 16 19 21 22 22 21 19 18 17 17 16 15 15 15 14 15 15 14 12 10 11 12 13 13 12 10 9 10 11 11 12 14 14 15 16 16 15 13 13 15 17 18 18 19 20 21 22 22 23 25
12 12 12 11 11 10 9 9 8 8 8 7 6 6 6 7 7 7 8 9 8 8 11 11 10 10 8 8 10 16 17 13 12 14 16 17 19 20 20 18 15 14 14 13 14 13 13 14 14 14 14 15 16 14 11 11 11 11 13 15 13 11 11 11 12 12 13 14 14 15 15 15 14 13 13 13 14 15 16 18 19 21 22 23 25
12 11 10 10 9 9 8 7 7 7 7 6 5 5 5 5 5 5 6 6 6 7 11 10 8 7 6 3 6 11 11 9 10 11 12 14 15 16 15 13 12 11 12 12 13 13 14 13 13 13 13 14 15 15 13 12 11 9 10 13 15 15 13 13 13 12 12 13 13 14 13 14 13 13 14 13 14 14 14 16 18 19 20 21 21
13 12 10 9 7 6 6 6 7 7 8 8 7 7 6 5 4 3 3 2 2 4 5 4 3 3 4 4 2 3 5 6 7 8 8 9 10 10 10 10 10 10 10 11 12 13 13 13 12 12 12 13 14 15 14 13 12 11 9 9 11 14 15 15 15 13 11 11 12 13 13 13 13 14 15 16 16 16 16 17 18 19 20 20 20
16 14 11 8 7 6 7 7 8 9 11 12 12 10 9 8 8 7 6 6 6 6 6 7 8 9 9 9 8 7 7 7 8 8 8 8 8 8 8 9 9 10 11 11 12 13 13 13 12 12 12 13 14 14 14 13 11 10 10 8 7 9 11 12 13 14 13 11 11 13 14 15 14 14 15 16 17 17 17 18 19 21 21 21 21
16 13 11 9 8 7 8 9 10 12 14 15 15 13 12 12 12 13 14 14 14 15 15 14 15 14 14 13 13 12 11 11 10 10 10 10 10 10 10 10 10 11 11 12 12 13 13 13 13 13 13 12 13 13 13 12 10 9 9 8 6 6 6 7 9 12 13 11 11 12 13 14 14 14 15 16 16 17 17 18 19 20 22 22 22
15 13 11 10 10 10 10 10 11 13 14 14 14 13 13 14 15 17 17 17 17 17 17 17 17 16 16 15 15 14 14 14 13 12 12 12 12 11 11 10 10 11 11 12 12 13 13 13 13 14 14 12 12 12 11 10 10 10 10 9 8 6 6 6 7 9 12 13 12 12 13 14 14 15 16 17 18 19 19 19 19 19 21 22 23
15 14 13 12 12 12 12 13 13 14 14 13 13 12 12 13 15 16 16 15 15 16 16 16 16 16 16 16 16 16 16 16 16 15 14 13 12 12 11 11 11 11 11 11 12 12 13 13 14 15 15 14 13 12 11 11 10 10 11 10 10 8 7 7 7 8 10 13 13 13 13 15 15 15 17 18 19 20 21 21 21 21 21 21 22
16 15 15 14 13 14 15 15 15 15 14 13 12 11 11 12 14 14 13 13 13 13 14 14 14 15 16 16 17 17 17 17 18 18 17 15 14 14 13 13 12 12 12 12 13 13 13 14 14 15 15 15 15 14 13 13 12 11 11 11 10 9 8 8 8 7 8 10 13 14 14 16 16 16 17 19 20 20 22 22 23 23 23 23 23
18 17 16 15 15 16 17 17 16 16 15 13 12 11 10 11 12 11 11 10 10 11 11 11 12 13 15 15 16 16 17 17 18 19 19 19 18 17 16 15 15 14 14 14 14 14 14 14 13 14 14 15 15 15 14 13 13 11 11 10 9 9 8 8 9 9 8 9 11 13 13 14 15 16 17 18 19 20 20 21 22 23 24 24 24
18 17 17 17 17 17 18 18 17 16 15 13 12 11 10 10 11 10 9 8 8 8 8 9 10 10 12 13 14 15 16 17 18 19 20 21 21 20 19 18 17 16 15 15 15 15 15 14 13 12 12 13 13 14 14 13 13 13 12 12 11 11 11 12 12 13 13 12 12 12 12 12 13 15 16 17 19 20 20 21 22 23 24 25 25
18 17 17 18 18 18 19 18 16 16 15 13 11 10 9 9 9 10 9 7 7 6 7 6 6 7 8 10 12 14 15 17 18 19 20 21 22 22 21 20 19 17 16 15 15 15 14 13 12 11 11 12 12 12 13 13 13 14 14 14 14 14 14 15 16 16 16 16 16 15 15 15 15 16 16 16 18 19 21 21 23 24 25 26 27
Wind_Direction
135 135 133 129 127 129 131 133 132 131 132 131 133 136 139 138 136 133 131 131 131 130 129 130 129 131 135 137 139 142 143 141 138 133 128 123 121 119 115 113 115 112 97 79 63 57 56 57 61 60 56 53 48 40 34 32 34 40 55 76 86 86 83 72 64 60 53 50 47 40 37 37 38 40 42 44 51 63 81 86 84 92 118 126 124
133 133 133 130 128 130 128 128 128 129 130 131 134 138 139 137 136 134 132 131 129 129 127 125 125 127 131 136 138 140 141 142 141 137 131 124 119 116 112 110 107 98 84 71 62 56 56 60 64 59 51 45 41 38 31 28 31 35 44 61 78 81 77 68 61 56 48 43 42 36 31 33 35 41 47 52 59 68 81 84 79 81 95 104 104
133 131 129 127 126 128 125 123 125 127 128 133 135 136 138 135 136 135 132 130 128 128 125 124 124 125 129 132 135 136 137 139 140 138 134 127 120 113 107 98 89 80 68 60 56 51 54 61 61 54 46 38 34 31 26 25 28 30 30 40 55 66 67 64 61 55 47 41 39 34 30 29 30 40 51 57 64 72 79 80 71 74 92 101 102
132 128 124 123 124 126 125 123 122 127 128 131 135 136 138 135 135 134 133 132 128 128 126 126 126 127 128 130 131 132 135 138 139 138 132 124 117 109 100 90 79 71 61 55 51 47 51 58 55 48 41 32 25 20 19 20 22 25 24 26 32 45 52 51 53 48 43 41 39 35 32 31 27 33 49 56 61 68 71 68 65 72 91 101 103
130 127 122 120 122 122 124 122 120 126 126 126 133 136 136 134 135 134 135 136 132 130 129 130 129 129 129 130 131 132 134 136 137 134 128 120 115 109 103 91 78 70 62 57 53 51 51 49 44 39 33 24 16 10 10 12 15 18 20 20 20 29 35 30 30 32 34 37 38 36 33 32 28 26 37 49 53 61 64 60 61 72 88 103 110
130 126 121 119 117 117 120 119 119 125 123 123 128 129 129 131 133 135 139 140 137 134 133 133 131 131 132 134 136 136 134 133 134 131 126 120 113 110 106 94 82 74 66 62 61 58 48 41 35 27 20 15 10 6 3 5 10 13 15 17 15 20 24 20 17 16 19 25 29 32 31 31 29 25 26 35 43 50 59 59 60 71 84 97 103
131 125 121 118 113 113 115 116 121 122 119 122 126 124 123 128 131 133 140 142 141 140 137 134 132 133 134 136 137 135 134 132 130 126 121 115 111 109 105 98 89 80 73 73 70 56 39 32 26 17 10 10 7 3 1 360 6 10 10 12 14 17 20 19 16 12 8 11 14 18 22 24 25 24 22 23 32 39 49 56 59 67 78 87 95
131 126 122 118 113 113 112 114 120 121 118 121 123 122 123 130 133 132 136 141 143 141 138 135 134 135 134 134 133 133 132 130 127 122 116 112 111 108 106 101 92 83 78 75 61 39 26 18 13 9 6 7 4 358 356 355 1 4 360 6 13 11 24 24 17 16 9 7 7 6 10 16 19 20 21 19 21 28 38 50 55 61 69 76 86
130 127 124 118 112 111 114 116 117 119 118 120 122 124 128 132 134 132 134 139 141 140 138 136 136 135 134 132 129 130 130 129 126 121 118 116 115 112 109 102 93 84 76 63 39 23 14 3 356 0 3 360 355 355 356 355 357 354 348 359 7 354 17 45 31 25 20 15 10 5 10 17 19 19 20 19 18 17 28 46 52 52 58 65 69
127 123 122 119 112 109 114 116 115 115 115 119 122 125 130 130 132 134 136 138 137 139 139 139 138 135 133 130 129 130 131 131 128 126 125 125 125 121 115 108 98 88 78 49 12 6 3 352 344 350 354 351 350 355 357 358 358 351 350 357 358 353 2 32 48 40 32 27 17 12 19 24 23 21 21 21 21 17 17 39 51 48 47 51 57
124 119 118 120 117 110 111 113 116 117 114 117 120 125 126 126 130 133 135 135 136 138 139 138 136 134 132 131 133 135 136 136 135 135 135 136 136 133 127 122 117 113 108 50 344 345 351 344 338 342 343 345 350 355 358 2 3 356 357 360 357 1 8 14 33 47 44 34 26 30 30 27 25 25 27 24 23 25 19 28 47 48 44 42 45
124 121 119 122 120 114 112 112 115 117 117 118 122 126 123 123 126 130 132 134 138 139 136 133 131 133 134 135 137 138 139 139 139 140 140 141 141 142 145 150 157 163 185 225 321 341 345 338 333 336 337 338 344 356 1 4 7 0 3 12 8 11 22 25 27 43 49 37 37 51 40 29 29 28 32 32 27 28 28 34 44 46 49 47 44
123 123 121 122 120 118 117 115 115 117 119 121 123 125 125 127 128 130 133 135 138 136 133 130 131 134 135 136 137 138 138 139 139 139 141 141 145 154 163 179 202 253 287 309 339 342 335 331 331 334 333 328 330 347 360 2 10 9 15 31 29 26 36 45 49 48 46 42 45 53 46 36 35 31 35 40 34 30 32 41 51 51 51 56 56
124 124 122 122 119 118 120 118 118 120 123 125 126 129 132 131 131 133 134 135 134 132 132 131 133 135 135 135 135 136 135 135 137 137 140 141 150 158 167 287 319 322 321 327 337 334 327 328 336 339 330 319 317 330 342 349 12 19 27 40 40 42 49 59 71 66 48 47 49 44 49 46 39 34 35 42 43 37 32 39 53 57 52 58 67
127 126 123 123 123 124 126 124 123 126 129 131 131 134 133 130 132 135 135 134 133 131 132 132 134 135 135 135 134 134 132 132 133 134 137 137 139 64 319 317 316 311 314 322 329 326 334 343 351 5 337 315 314 322 323 321 9 31 33 41 41 51 62 68 77 72 50 46 54 43 42 43 39 34 34 40 47 46 39 38 51 61 57 55 67
130 130 128 125 127 131 132 129 129 129 131 134 133 134 132 132 135 137 137 135 133 133 133 134 136 136 136 136 136 135 133 133 132 135 137 128 301 288 273 278 277 285 297 304 319 320 25 37 53 79 116 288 313 325 326 324 350 25 34 41 48 61 64 70 76 68 56 47 49 45 28 22 25 24 32 42 47 51 48 44 49 63 67 61 63
137 139 136 131 130 131 126 127 135 129 130 134 132 134 134 135 137 137 138 137 136 136 136 138 138 139 139 141 143 142 140 140 142 152 157 243 274 275 277 277 268 270 267 256 242 224 200 205 180 148 132 90 327 336 337 331 336 356 29 30 36 57 54 63 72 64 68 62 42 40 22 5 8 9 24 43 46 50 54 53 53 62 73 71 66
145 146 141 135 130 127 125 127 136 132 135 138 134 138 139 137 138 139 139 140 140 140 142 145 145 146 148 151 152 155 155 156 168 180 192 271 295 307 319 304 285 277 261 252 250 254 247 239 257 56 68 4 329 340 340 334 332 342 21 26 16 42 43 49 62 51 56 66 51 36 22 11 9 3 13 32 41 47 53 58 58 60 72 76 72
153 151 145 137 127 128 134 132 132 134 141 143 142 143 141 140 141 141 143 145 146 149 153 156 158 159 161 163 166 166 166 174 185 192 206 257 345 336 338 325 310 295 280 301 291 299 281 282 17 31 18 351 337 345 337 335 338 341 5 19 11 8 16 35 56 55 42 51 55 40 27 20 12 1 8 19 28 40 49 56 62 62 67 76 78
158 156 149 140 134 136 141 137 140 147 145 146 148 147 146 145 144 145 148 150 154 159 166 170 171 171 170 171 170 168 170 179 189 198 219 242 277 258 294 346 348 329 323 336 330 337 307 321 30 38 31 5 336 344 339 338 344 348 359 4 2 347 343 357 3 38 52 55 52 54 61 49 13 318 17 10 11 29 43 48 59 65 64 73 82
162 160 153 143 142 146 149 148 160 168 145 149 155 149 151 149 146 152 156 158 166 173 177 180 178 175 172 170 163 158 162 164 176 200 222 253 267 254 262 321 347 334 330 337 344 352 326 343 34 43 40 20 328 340 339 340 347 355 1 356 353 342 336 344 344 350 1 24 353 269 81 80 94 232 220 352 354 14 39 47 51 63 66 69 81
163 166 161 154 154 158 164 168 178 172 148 162 175 159 162 161 158 167 173 172 178 189 189 187 185 179 172 163 152 148 151 152 177 208 230 264 277 266 267 288 314 324 325 333 347 354 338 346 21 25 20 16 353 346 341 347 354 359 359 351 348 338 330 333 334 336 338 343 339 315 309 91 120 227 245 282 320 354 20 51 52 60 67 67 77
166 170 166 162 163 164 171 177 181 173 159 176 185 180 182 177 177 181 188 189 193 212 211 206 200 189 177 167 156 154 164 180 217 247 253 261 266 276 287 292 303 314 317 325 338 349 345 344 357 4 8 5 355 350 348 354 357 354 350 346 342 336 330 325 324 324 327 331 328 325 312 277 219 238 250 264 269 291 321 45 60 63 64 65 73
170 174 173 169 168 167 171 177 177 173 178 190 188 188 194 190 189 186 187 197 209 227 226 223 219 207 196 187 180 186 214 250 274 279 269 263 265 277 292 296 300 305 304 310 321 333 340 342 345 348 348 345 344 344 346 347 344 341 338 338 336 332 330 324 321 316 313 316 313 310 303 282 250 252 254 258 257 243 229 261 64 83 73 62 63
180 183 179 174 172 172 176 181 179 176 180 190 190 189 194 194 195 193 196 206 213 223 225 222 223 228 226 219 217 221 241 261 276 286 282 276 276 278 287 294 297 298 296 299 307 318 326 333 335 333 329 328 330 330 330 330 328 326 325 325 326 326 326 323 319 313 307 303 298 294 289 281 256 248 254 254 255 246 223 210 204 155 121 90 55
184 187 183 181 180 179 181 183 184 182 180 184 188 189 192 197 202 203 205 210 215 219 223 219 215 224 237 242 247 254 265 274 280 286 287 286 285 285 288 293 294 292 290 292 300 308 312 318 321 320 318 317 316 316 314 313 313 313 313 314 315 316 317 317 314 309 304 298 293 287 280 277 266 249 248 248 250 249 234 213 205 206 182 150 150
185 190 190 191 187 184 184 185 186 187 187 184 184 186 190 196 202 204 204 208 213 212 215 214 209 214 231 248 259 266 274 284 287 285 283 286 289 291 292 292 292 291 291 295 301 306 308 310 311 309 309 309 309 309 307 307 305 302 302 305 307 309 309 310 309 305 300 296 292 286 279 275 269 258 248 242 242 246 241 224 212 211 210 198 195
187 194 196 197 194 195 192 192 195 194 195 189 183 185 187 192 199 205 209 214 218 218 220 218 213 217 229 244 256 262 268 277 284 284 280 281 288 293 293 293 295 296 296 300 306 310 311 310 307 305 304 304 304 305 307 308 306 302 298 297 299 302 304 303 302 301 297 293 290 286 281 276 270 261 252 244 238 243 244 233 220 211 212 217 220
184 193 197 199 202 208 207 207 209 208 205 197 192 192 190 194 204 213 220 225 230 231 234 233 230 233 236 242 250 258 264 271 280 286 284 284 287 290 292 296 298 296 294 299 308 311 310 308 306 305 304 304 304 304 307 309 308 304 300 295 293 296 298 298 296 295 294 288 285 285 280 275 270 261 254 249 241 238 241 236 227 217 212 216 223
178 187 189 196 202 208 213 216 217 216 214 208 208 208 203 208 216 225 231 233 237 240 245 243 239 241 242 244 254 264 269 271 276 284 284 284 285 286 290 295 295 292 293 300 307 309 307 307 307 308 308 308 307 305 306 308 306 302 299 294 291 292 293 292 289 287 288 285 280 280 277 270 265 261 255 251 246 241 241 238 231 223 217 217 218
179 181 185 195 197 200 208 215 219 218 216 215 220 220 218 223 229 234 237 239 244 249 252 251 249 248 246 252 265 272 273 271 272 277 279 281 283 284 287 291 293 293 296 301 305 306 305 305 307 310 312 311 308 305 305 305 303 300 297 294 291 291 291 290 284 280 281 280 275 273 272 266 259 258 255 252 250 246 241 237 232 225 219 216 213
181 184 196 201 196 200 207 212 217 218 218 221 226 229 230 235 239 241 241 244 250 255 259 264 268 266 259 264 272 273 275 275 274 275 276 278 280 281 284 287 291 294 297 301 304 304 303 304 308 311 313 311 308 306 306 305 302 299 298 297 294 290 291 289 282 276 274 274 271 267 266 263 257 254 254 253 250 248 245 242 237 231 228 225 220
187 199 207 204 198 205 209 210 217 219 223 229 232 236 240 246 248 247 247 249 253 259 263 267 271 273 270 268 271 272 274 277 279 280 279 279 279 279 282 285 289 293 298 303 306 304 302 304 307 309 310 309 308 308 310 310 306 303 303 302 300 295 290 285 279 274 271 270 269 266 261 258 255 251 251 253 252 251 251 249 244 237 235 235 235
190 203 208 205 201 204 209 212 217 221 226 232 236 240 243 247 248 249 252 254 256 259 261 264 270 274 271 266 266 269 273 277 280 282 282 281 280 279 280 285 289 292 297 302 305 304 302 302 303 304 306 306 306 309 314 316 311 307 307 307 304 299 290 282 278 274 271 270 271 270 265 258 253 250 248 251 256 258 253 248 243 241 241 242 244
193 197 201 206 205 203 208 213 217 222 227 231 233 237 239 241 245 251 256 258 259 261 261 265 274 276 275 271 266 265 271 278 279 280 283 282 281 280 280 286 291 292 295 298 301 302 300 300 302 304 307 308 307 311 318 317 310 306 307 307 304 300 294 287 284 281 278 275 273 273 271 266 259 254 249 249 254 254 249 247 243 244 249 248 245
194 194 202 209 208 205 209 214 218 223 226 225 227 231 231 232 241 251 255 258 260 262 266 271 273 275 279 278 268 265 270 283 286 282 281 281 282 283 285 289 291 292 294 296 297 297 296 299 303 307 311 313 312 313 316 312 308 311 310 308 306 302 298 295 292 291 288 282 277 274 272 271 267 264 258 254 253 248 244 244 241 239 243 246 243
197 199 207 212 212 213 218 221 223 227 226 225 225 228 227 226 234 246 248 252 256 258 263 265 264 272 278 277 270 266 267 286 295 287 281 283 283 282 286 289 291 294 294 293 294 294 294 297 301 306 311 312 311 312 311 308 310 314 313 311 309 305 302 301 300 298 296 292 287 281 276 272 269 267 263 258 257 255 250 242 238 235 233 237 238
200 207 210 209 211 215 219 222 228 231 231 232 230 229 231 229 230 241 248 253 253 253 256 253 254 267 277 277 276 276 277 288 294 289 287 288 282 277 281 286 292 295 294 292 293 292 292 292 294 300 306 306 307 314 315 311 314 317 317 316 314 310 303 299 298 297 296 295 294 292 288 280 270 265 263 259 255 256 258 252 246 244 241 238 237
204 211 214 212 214 217 220 226 233 235 234 234 229 228 234 233 236 247 255 258 252 250 252 247 251 262 269 267 271 281 283 286 290 288 283 280 276 275 279 286 294 297 295 293 292 290 288 288 290 292 293 294 300 313 318 314 317 321 319 314 310 310 306 299 296 294 293 294 295 296 297 294 282 270 264 261 256 254 258 261 257 254 254 252 249
209 214 217 217 218 221 226 230 231 229 225 225 223 225 232 229 237 249 250 251 249 252 257 252 254 259 254 252 267 279 279 282 289 285 277 272 274 278 282 289 295 296 293 291 289 288 286 286 287 286 285 288 295 306 313 310 315 319 314 309 304 302 302 303 302 298 295 295 295 296 298 300 296 285 273 266 263 258 257 259 259 258 259 259 257
212 215 216 217 219 222 224 223 219 214 211 213 213 218 219 210 218 233 239 246 248 257 269 269 269 273 265 246 258 273 277 280 282 279 276 276 279 283 287 291 293 289 285 285 286 283 278 277 281 281 282 287 293 303 309 306 308 310 307 308 308 307 306 307 308 305 300 298 295 293 294 296 297 294 286 278 272 267 261 257 256 257 258 258 259
208 211 213 215 217 219 216 210 206 200 195 191 187 191 189 182 198 218 233 247 247 249 265 277 284 292 298 270 251 269 285 292 286 287 288 285 286 289 292 293 289 283 282 282 281 278 274 274 277 280 283 287 292 301 308 305 302 298 296 299 303 308 312 311 310 309 306 302 299 296 293 293 294 293 291 288 282 275 269 263 259 257 257 258 260
197 200 204 205 201 199 192 186 186 183 171 157 148 150 148 147 159 173 192 216 233 237 253 285 322 357 17 28 8 320 327 328 319 321 315 303 301 300 299 298 294 289 286 284 280 278 279 281 284 286 290 295 297 302 306 304 299 297 293 286 288 297 307 310 310 312 314 308 303 301 299 296 293 291 292 291 289 286 280 275 271 266 262 259 257
192 191 186 177 166 161 162 165 168 160 147 137 133 131 126 122 120 115 111 111 106 103 95 82 72 65 60 54 47 35 20 10 359 350 342 337 331 323 319 316 310 305 299 294 289 286 288 292 297 299 300 302 303 304 304 301 299 298 296 287 278 285 299 305 306 307 310 311 308 305 301 298 294 292 290 289 288 287 285 282 278 275 271 266 262
193 186 173 159 153 151 154 157 154 145 138 132 127 122 115 109 106 105 104 102 99 95 90 84 78 72 66 61 54 46 37 28 18 8 359 353 346 339 334 326 318 312 306 303 299 298 299 300 302 303 302 302 302 303 302 299 299 296 294 292 283 278 289 293 293 294 297 302 306 303 299 296 294 292 288 286 285 284 283 281 280 278 276 274 270
192 183 171 162 159 155 155 156 151 144 139 133 129 123 116 109 106 106 104 101 96 91 86 80 76 71 66 60 53 48 41 34 26 17 8 360 353 345 336 327 320 315 311 307 302 300 298 298 300 301 303 303 301 301 301 300 300 297 295 296 290 282 279 274 268 275 286 292 295 296 294 290 289 288 286 284 283 283 281 279 278 276 275 275 274
192 186 175 169 166 162 161 159 154 149 143 138 136 132 125 119 115 110 106 101 95 88 83 78 73 66 60 54 48 44 39 34 28 22 15 7 360 351 343 337 332 328 324 318 311 308 304 304 306 308 310 311 309 307 306 305 303 300 300 300 299 298 293 283 268 262 274 286 291 294 292 289 285 283 282 282 281 282 283 282 281 278 275 272 272
197 190 177 173 172 167 164 162 158 152 147 144 142 141 138 132 127 123 116 108 98 90 84 78 70 61 53 46 40 36 31 29 26 23 19 13 7 2 356 351 347 343 338 332 326 321 316 313 312 310 311 312 312 312 311 311 310 309 307 306 306 308 304 299 289 273 263 269 279 286 290 292 291 286 280 278 277 278 280 282 283 282 279 276 272
201 193 181 181 181 175 169 166 161 154 150 147 144 145 149 147 144 139 130 120 106 94 86 77 67 57 49 41 34 30 25 21 19 19 18 15 11 6 2 358 355 350 345 339 332 326 321 316 311 308 309 310 310 312 314 315 316 317 314 314 315 315 313 309 304 299 290 274 271 274 278 285 291 291 288 284 281 280 280 282 283 283 282 280 278
203 197 189 189 187 181 175 171 165 159 156 152 149 148 151 155 156 155 147 134 119 101 88 76 64 52 44 36 30 24 19 15 13 13 13 13 10 6 3 360 356 353 347 340 334 330 325 319 312 307 306 309 311 312 315 317 318 319 319 320 321 321 320 317 312 309 306 297 286 277 274 275 278 282 286 287 285 284 282 283 284 284 283 281 279
204 201 196 193 190 188 182 177 171 167 166 162 160 156 152 154 157 159 157 147 133 113 94 77 60 45 35 28 23 19 15 11 8 6 7 8 7 4 1 358 355 352 347 342 337 332 327 321 314 308 306 309 310 310 311 311 314 315 316 318 318 318 317 315 312 308 304 300 295 290 286 283 280 279 281 281 281 282 281 281 282 282 281 280 279
Height
3175 3176 3178 3179 3180 3182 3184 3187 3188 3189 3190 3190 3192 3193 3193 3194 3195 3196 3197 3198 3200 3201 3203 3203 3204 3204 3206 3207 3208 3209 3210 3211 3212 3213 3214 3214 3215 3215 3216 3217 3217 3218 3219 3218 3218 3218 3218 3218 3218 3217 3217 3216 3216 3216 3215 3215 3215 3214 3214 3213 3212 3211 3211 3210 3209 3208 3207 3206 3204 3203 3202 3202 3201 3201 3200 3199 3199 3199 3199 3199 3199 3199 3199 3199 3199
3177 3179 3180 3181 3181 3183 3185 3188 3190 3191 3191 3192 3193 3194 3194 3195 3196 3197 3198 3199 3201 3203 3204 3204 3205 3205 3207 3208 3209 3210 3211 3213 3214 3215 3215 3216 3216 3217 3218 3218 3219 3219 3219 3219 3219 3218 3218 3219 3218 3218 3217 3216 3216 3216 3216 3216 3216 3215 3215 3214 3213 3212 3212 3211 3210 3209 3209 3207 3205 3204 3204 3203 3202 3202 3201 3200 3199 3199 3199 3199 3199 3199 3199 3199 3200
3180 3181 3183 3184 3184 3184 3187 3190 3191 3192 3192 3193 3194 3195 3196 3197 3198 3198 3199 3200 3202 3204 3205 3206 3206 3207 3208 3209 3210 3212 3213 3214 3215 3216 3217 3217 3218 3218 3219 3219 3220 3220 3220 3219 3219 3219 3219 3219 3219 3218 3217 3217 3217 3217 3217 3217 3217 3216 3215 3215 3214 3213 3212 3212 3212 3211 3210 3208 3207 3207 3206 3204 3203 3203 3202 3202 3201 3201 3200 3200 3200 3200 3200 3200 3201
3183 3184 3185 3186 3186 3186 3188 3191 3192 3193 3193 3194 3195 3196 3198 3198 3199 3199 3200 3202 3203 3205 3206 3207 3207 3208 3209 3210 3211 3213 3214 3215 3216 3217 3217 3218 3219 3219 3220 3220 3220 3220 3220 3219 3219 3219 3219 3219 3219 3218 3218 3217 3217 3217 3217 3217 3217 3216 3216 3215 3214 3214 3214 3213 3213 3212 3212 3210 3209 3209 3209 3207 3206 3205 3204 3204 3203 3202 3201 3201 3201 3200 3201 3201 3202
3185 3186 3187 3188 3187 3187 3189 3192 3193 3194 3195 3196 3197 3198 3199 3199 3200 3200 3201 3203 3204 3206 3207 3208 3209 3210 3211 3212 3213 3214 3215 3216 3217 3217 3218 3219 3219 3220 3220 3220 3220 3220 3220 3220 3219 3219 3220 3220 3220 3219 3219 3218 3218 3218 3217 3217 3216 3216 3215 3214 3214 3214 3214 3214 3214 3213 3213 3212 3211 3211 3210 3209 3208 3207 3206 3205 3205 3204 3203 3202 3202 3201 3202 3202 3203
3187 3188 3189 3189 3189 3189 3190 3192 3195 3196 3197 3198 3199 3200 3200 3201 3201 3202 3203 3204 3205 3206 3207 3209 3210 3211 3212 3214 3215 3216 3216 3217 3218 3218 3219 3220 3220 3221 3221 3221 3221 3220 3220 3220 3220 3220 3220 3220 3220 3219 3219 3219 3218 3218 3217 3216 3216 3215 3215 3214 3213 3213 3214 3214 3214 3214 3214 3213 3212 3212 3211 3210 3210 3209 3209 3207 3206 3206 3205 3204 3204 3203 3203 3203 3203
3188 3190 3191 3192 3192 3192 3192 3193 3197 3198 3199 3199 3201 3202 3202 3203 3204 3204 3205 3206 3207 3208 3209 3210 3211 3212 3214 3215 3216 3217 3217 3218 3218 3219 3220 3221 3221 3221 3222 3221 3221 3221 3221 3221 3220 3220 3220 3220 3220 3219 3219 3219 3219 3217 3216 3216 3215 3215 3214 3213 3213 3213 3213 3214 3214 3214 3214 3213 3213 3212 3212 3211 3211 3211 3210 3209 3208 3208 3207 3206 3206 3205 3205 3205 3205
3190 3191 3193 3194 3194 3194 3194 3194 3197 3199 3199 3200 3202 3204 3205 3206 3206 3206 3207 3208 3209 3209 3210 3212 3213 3214 3215 3216 3217 3218 3218 3219 3219 3220 3221 3221 3222 3222 3222 3222 3222 3221 3221 3221 3221 3221 3220 3220 3220 3219 3219 3219 3219 3217 3216 3216 3215 3215 3213 3212 3213 3213 3213 3213 3213 3213 3213 3213 3213 3213 3213 3212 3212 3211 3211 3210 3209 3209 3208 3208 3207 3207 3206 3206 3206
3191 3192 3193 3194 3195 3196 3195 3194 3196 3198 3200 3202 3204 3206 3207 3208 3208 3208 3208 3209 3210 3211 3212 3213 3214 3215 3216 3217 3218 3218 3219 3220 3220 3221 3222 3222 3222 3222 3222 3222 3222 3222 3222 3222 3221 3221 3220 3220 3220 3220 3219 3219 3218 3218 3218 3217 3216 3215 3213 3212 3213 3214 3213 3211 3212 3212 3212 3212 3213 3213 3213 3212 3212 3212 3211 3211 3210 3210 3210 3209 3209 3208 3208 3208 3207
3193 3193 3194 3195 3196 3196 3196 3196 3197 3200 3201 3203 3205 3207 3208 3209 3210 3210 3211 3212 3213 3213 3214 3215 3216 3217 3217 3218 3219 3219 3220 3221 3221 3222 3222 3223 3223 3222 3222 3222 3222 3222 3222 3222 3222 3221 3221 3220 3220 3219 3219 3219 3218 3218 3218 3218 3217 3215 3215 3215 3214 3215 3215 3212 3210 3211 3212 3212 3213 3213 3213 3212 3212 3212 3212 3211 3211 3211 3211 3210 3209 3209 3209 3209 3208
3194 3194 3195 3196 3197 3197 3198 3198 3200 3201 3203 3204 3206 3207 3208 3210 3211 3212 3213 3214 3215 3215 3216 3217 3217 3218 3218 3219 3220 3220 3221 3222 3222 3222 3223 3223 3223 3223 3222 3222 3222 3223 3223 3223 3222 3222 3221 3221 3220 3219 3219 3218 3218 3218 3218 3218 3217 3215 3215 3215 3214 3215 3215 3214 3212 3211 3211 3212 3212 3213 3213 3213 3212 3212 3212 3212 3212 3211 3211 3211 3210 3210 3209 3209 3209
3195 3195 3196 3197 3198 3198 3200 3201 3202 3203 3204 3205 3206 3207 3209 3210 3212 3214 3215 3216 3217 3217 3217 3218 3218 3219 3219 3220 3221 3221 3222 3222 3222 3223 3223 3223 3223 3223 3223 3223 3223 3223 3223 3223 3223 3223 3222 3222 3221 3220 3219 3218 3218 3218 3217 3217 3217 3216 3215 3215 3215 3215 3214 3214 3214 3212 3211 3211 3212 3212 3213 3213 3213 3212 3212 3212 3212 3212 3212 3211 3211 3210 3210 3210 3210
3195 3196 3197 3198 3199 3200 3201 3203 3204 3205 3205 3206 3207 3209 3210 3211 3213 3215 3216 3217 3217 3218 3218 3218 3219 3219 3220 3220 3221 3221 3222 3222 3223 3223 3223 3223 3223 3223 3224 3224 3223 3223 3223 3223 3223 3223 3223 3222 3221 3221 3220 3219 3217 3217 3216 3215 3216 3215 3215 3215 3215 3215 3214 3214 3214 3214 3213 3212 3212 3212 3212 3213 3213 3212 3212 3212 3212 3212 3212 3212 3211 3211 3211 3210 3210
3197 3197 3198 3199 3200 3201 3202 3204 3205 3206 3207 3208 3210 3211 3212 3213 3214 3216 3217 3217 3218 3218 3218 3219 3219 3220 3220 3221 3221 3222 3222 3223 3223 3223 3224 3224 3225 3225 3225 3225 3225 3224 3224 3224 3223 3223 3223 3222 3221 3221 3220 3219 3218 3217 3215 3214 3215 3214 3215 3215 3215 3215 3215 3214 3213 3214 3215 3213 3212 3213 3213 3213 3213 3213 3212 3212 3212 3212 3213 3212 3212 3211 3211 3211 3210
3197 3198 3199 3200 3201 3202 3204 3205 3206 3207 3209 3210 3211 3212 3213 3215 3216 3217 3217 3218 3218 3219 3219 3219 3220 3220 3221 3222 3222 3223 3223 3223 3224 3224 3225 3225 3226 3226 3225 3225 3225 3225 3224 3224 3223 3224 3223 3222 3221 3220 3220 3219 3218 3217 3215 3213 3214 3215 3215 3215 3215 3215 3215 3214 3213 3214 3215 3214 3213 3214 3214 3214 3213 3213 3212 3212 3212 3212 3212 3213 3212 3211 3211 3211 3211
3198 3199 3200 3201 3202 3203 3204 3205 3207 3208 3209 3211 3212 3213 3214 3215 3216 3217 3218 3218 3219 3219 3220 3220 3221 3221 3222 3222 3223 3223 3224 3224 3225 3225 3226 3226 3226 3226 3226 3225 3225 3224 3224 3223 3223 3223 3222 3221 3220 3219 3219 3219 3219 3218 3216 3213 3212 3214 3216 3217 3216 3216 3214 3213 3213 3214 3216 3214 3213 3214 3214 3214 3214 3213 3212 3212 3212 3212 3212 3212 3213 3212 3212 3212 3211
3198 3200 3201 3202 3203 3204 3205 3206 3207 3208 3209 3211 3212 3213 3214 3216 3217 3218 3218 3219 3219 3220 3221 3221 3221 3222 3222 3223 3223 3224 3224 3225 3225 3226 3226 3226 3226 3226 3226 3225 3225 3224 3223 3223 3223 3222 3221 3219 3217 3216 3218 3220 3220 3219 3218 3216 3213 3212 3215 3218 3217 3216 3215 3214 3213 3213 3216 3216 3214 3214 3214 3214 3214 3214 3212 3212 3212 3212 3212 3212 3213 3212 3212 3212 3211
3199 3200 3202 3203 3204 3205 3205 3206 3208 3208 3210 3211 3212 3213 3214 3216 3217 3218 3218 3219 3220 3220 3221 3221 3221 3222 3223 3223 3224 3225 3225 3225 3226 3226 3226 3226 3226 3226 3226 3225 3225 3224 3224 3223 3223 3222 3220 3216 3217 3219 3220 3221 3221 3221 3220 3218 3216 3214 3215 3217 3217 3216 3215 3214 3213 3212 3213 3215 3214 3214 3214 3214 3214 3214 3213 3212 3212 3212 3212 3212 3212 3212 3212 3212 3212
3199 3200 3201 3203 3204 3205 3206 3207 3208 3208 3210 3211 3212 3213 3214 3216 3217 3218 3218 3219 3220 3220 3221 3221 3222 3222 3223 3224 3224 3225 3225 3226 3226 3226 3226 3226 3226 3226 3226 3225 3225 3224 3224 3224 3223 3222 3219 3216 3220 3222 3221 3221 3221 3221 3220 3219 3218 3215 3214 3216 3216 3216 3215 3214 3213 3213 3212 3213 3214 3214 3214 3214 3214 3213 3213 3213 3212 3212 3212 3213 3212 3212 3212 3212 3212
3199 3201 3202 3203 3204 3205 3206 3207 3208 3209 3210 3211 3212 3214 3215 3216 3217 3218 3218 3219 3220 3220 3221 3221 3222 3223 3224 3224 3225 3225 3226 3226 3226 3226 3226 3226 3226 3226 3226 3225 3225 3224 3224 3224 3223 3222 3219 3218 3222 3222 3222 3222 3221 3221 3221 3220 3219 3217 3215 3216 3217 3216 3215 3214 3213 3213 3213 3213 3214 3214 3214 3214 3214 3213 3213 3213 3213 3213 3213 3213 3213 3212 3212 3212 3212
3199 3201 3202 3203 3205 3206 3207 3207 3209 3210 3211 3212 3213 3214 3215 3216 3217 3218 3218 3219 3220 3220 3221 3222 3222 3223 3224 3225 3225 3226 3226 3226 3226 3226 3226 3226 3226 3225 3225 3224 3224 3224 3224 3224 3223 3222 3220 3220 3223 3222 3222 3222 3221 3221 3221 3220 3219 3218 3216 3216 3217 3216 3215 3214 3213 3213 3214 3214 3214 3214 3213 3213 3213 3213 3213 3212 3213 3213 3213 3213 3213 3213 3212 3212 3212
3199 3201 3203 3204 3205 3206 3207 3208 3209 3210 3211 3212 3213 3214 3215 3217 3217 3218 3219 3220 3220 3221 3221 3222 3222 3223 3224 3225 3225 3226 3226 3226 3226 3226 3225 3225 3225 3225 3224 3224 3224 3224 3224 3224 3223 3223 3222 3222 3223 3223 3222 3221 3221 3221 3221 3220 3219 3218 3217 3216 3216 3216 3215 3214 3214 3213 3213 3214 3214 3214 3213 3213 3213 3212 3213 3213 3212 3212 3213 3213 3213 3213 3213 3213 3212
3200 3201 3203 3204 3206 3207 3208 3209 3209 3210 3211 3213 3214 3214 3215 3217 3218 3219 3220 3220 3220 3221 3221 3222 3222 3223 3224 3224 3225 3225 3226 3226 3226 3225 3225 3224 3224 3224 3224 3224 3224 3224 3224 3224 3224 3224 3223 3222 3223 3222 3222 3221 3221 3220 3220 3219 3218 3217 3217 3216 3216 3215 3215 3214 3213 3213 3213 3213 3213 3214 3213 3213 3212 3212 3212 3213 3212 3212 3213 3213 3213 3213 3213 3213 3213
3201 3202 3203 3204 3206 3207 3208 3209 3210 3210 3212 3213 3214 3215 3216 3217 3218 3219 3219 3220 3221 3221 3221 3222 3223 3223 3223 3224 3224 3225 3225 3225 3225 3225 3224 3224 3224 3224 3224 3223 3223 3224 3224 3224 3224 3224 3224 3223 3222 3221 3220 3220 3220 3219 3219 3218 3217 3217 3216 3216 3215 3215 3214 3213 3213 3212 3212 3212 3213 3213 3213 3212 3212 3212 3212 3212 3212 3212 3212 3212 3212 3213 3213 3213 3213
3201 3202 3203 3205 3206 3207 3208 3209 3210 3211 3212 3213 3214 3215 3216 3217 3218 3218 3219 3220 3220 3221 3221 3222 3222 3223 3223 3223 3223 3224 3224 3224 3224 3224 3224 3224 3224 3223 3223 3223 3223 3223 3223 3223 3223 3223 3224 3223 3222 3221 3220 3220 3220 3219 3218 3218 3217 3216 3215 3215 3214 3214 3213 3213 3212 3212 3211 3211 3212 3212 3212 3212 3212 3212 3211 3212 3212 3212 3212 3212 3212 3212 3213 3213 3213
3202 3203 3204 3205 3206 3207 3209 3210 3211 3211 3212 3213 3214 3215 3216 3217 3217 3218 3218 3219 3220 3220 3221 3221 3222 3222 3223 3223 3223 3223 3223 3223 3224 3224 3224 3224 3224 3223 3223 3223 3223 3222 3222 3222 3222 3223 3223 3223 3222 3221 3220 3220 3219 3219 3218 3217 3216 3215 3214 3213 3213 3212 3212 3212 3211 3211 3211 3210 3211 3211 3211 3211 3211 3211 3211 3211 3211 3211 3211 3211 3211 3212 3212 3212 3213
3202 3203 3205 3206 3207 3208 3210 3211 3211 3212 3213 3213 3214 3215 3216 3217 3217 3218 3218 3219 3219 3220 3220 3221 3221 3222 3222 3222 3222 3223 3223 3223 3223 3223 3223 3223 3223 3223 3223 3223 3222 3222 3222 3221 3221 3221 3221 3221 3221 3220 3220 3219 3218 3217 3217 3216 3215 3214 3213 3212 3211 3211 3210 3210 3210 3209 3209 3209 3209 3209 3210 3210 3210 3210 3210 3210 3210 3210 3210 3210 3211 3211 3211 3212 3212
3203 3204 3205 3206 3208 3209 3210 3211 3212 3212 3213 3214 3215 3216 3216 3217 3217 3217 3218 3218 3219 3219 3220 3220 3221 3221 3221 3222 3222 3222 3222 3222 3223 3223 3223 3223 3223 3223 3223 3222 3222 3222 3221 3221 3221 3220 3220 3220 3219 3219 3218 3217 3216 3216 3215 3214 3213 3212 3211 3210 3210 3209 3209 3208 3208 3208 3207 3207 3207 3208 3208 3208 3209 3209 3209 3209 3209 3209 3210 3210 3210 3210 3210 3211 3212
3203 3204 3205 3206 3208 3209 3210 3211 3212 3213 3213 3214 3215 3215 3216 3216 3217 3217 3217 3218 3218 3218 3219 3220 3220 3221 3221 3221 3221 3222 3222 3222 3222 3222 3222 3222 3222 3222 3222 3222 3221 3221 3220 3220 3220 3219 3219 3218 3217 3217 3216 3215 3215 3214 3213 3212 3211 3209 3209 3208 3208 3207 3207 3206 3206 3206 3206 3205 3205 3206 3206 3207 3207 3207 3208 3208 3208 3208 3208 3209 3209 3209 3209 3210 3211
3203 3204 3205 3206 3207 3208 3209 3210 3211 3212 3213 3214 3214 3215 3215 3215 3216 3216 3217 3217 3217 3218 3218 3219 3220 3220 3220 3221 3221 3221 3221 3221 3221 3221 3221 3221 3221 3221 3221 3221 3221 3220 3220 3219 3218 3218 3217 3216 3215 3215 3214 3213 3213 3212 3211 3210 3209 3208 3207 3206 3205 3205 3205 3204 3204 3204 3204 3204 3204 3204 3204 3205 3206 3206 3206 3207 3207 3207 3207 3208 3209 3209 3209 3209 3210
3202 3204 3205 3205 3206 3208 3209 3210 3210 3211 3212 3213 3213 3214 3214 3214 3215 3215 3216 3216 3217 3217 3218 3219 3219 3220 3220 3220 3220 3221 3221 3221 3220 3220 3220 3219 3219 3219 3219 3220 3220 3219 3218 3218 3217 3216 3215 3214 3213 3213 3212 3211 3211 3210 3209 3208 3207 3206 3205 3204 3203 3202 3202 3202 3202 3202 3202 3202 3202 3202 3203 3203 3204 3204 3205 3205 3206 3206 3207 3207 3208 3208 3207 3207 3207
3202 3203 3204 3205 3206 3207 3208 3209 3209 3210 3211 3212 3212 3213 3213 3214 3214 3214 3215 3216 3216 3217 3217 3218 3219 3219 3219 3220 3220 3220 3220 3220 3219 3219 3218 3218 3218 3218 3218 3218 3218 3218 3217 3216 3215 3214 3213 3212 3211 3210 3210 3209 3208 3207 3207 3206 3205 3204 3202 3202 3201 3200 3200 3199 3199 3200 3200 3200 3200 3200 3201 3201 3202 3203 3203 3204 3204 3205 3206 3207 3207 3206 3206 3206 3205
3202 3203 3203 3204 3205 3206 3207 3208 3208 3209 3210 3211 3211 3212 3212 3213 3213 3214 3214 3215 3216 3216 3217 3218 3218 3219 3219 3219 3219 3219 3219 3219 3218 3218 3217 3217 3217 3217 3217 3217 3217 3216 3215 3214 3213 3212 3211 3210 3209 3208 3207 3206 3205 3205 3204 3203 3202 3201 3200 3199 3198 3198 3198 3197 3197 3197 3198 3198 3198 3199 3199 3200 3200 3200 3202 3202 3202 3204 3206 3206 3207 3206 3206 3205 3205
3201 3202 3203 3203 3204 3205 3206 3207 3207 3208 3209 3209 3210 3211 3211 3212 3212 3213 3213 3214 3215 3216 3217 3217 3218 3218 3219 3219 3218 3218 3218 3218 3217 3217 3217 3216 3216 3216 3216 3216 3215 3214 3213 3212 3211 3210 3209 3208 3207 3206 3205 3204 3203 3202 3202 3201 3200 3199 3197 3197 3196 3196 3196 3196 3195 3195 3196 3196 3196 3197 3198 3198 3199 3199 3200 3200 3201 3204 3205 3204 3206 3206 3206 3205 3205
3200 3201 3202 3203 3203 3204 3205 3206 3206 3207 3208 3209 3210 3210 3211 3211 3212 3213 3213 3214 3214 3215 3216 3217 3218 3218 3218 3218 3218 3217 3217 3217 3216 3216 3216 3216 3216 3216 3215 3215 3214 3213 3211 3210 3209 3208 3207 3206 3205 3204 3203 3202 3201 3200 3200 3199 3198 3197 3196 3195 3195 3194 3194 3194 3194 3194 3194 3195 3195 3195 3196 3197 3197 3198 3198 3199 3200 3204 3203 3202 3203 3205 3206 3205 3205
3200 3201 3201 3202 3203 3204 3204 3205 3206 3206 3207 3208 3209 3209 3210 3211 3211 3212 3213 3213 3214 3215 3215 3216 3217 3217 3217 3217 3216 3216 3216 3215 3215 3215 3215 3215 3215 3214 3214 3213 3212 3211 3209 3208 3207 3205 3204 3204 3202 3202 3201 3200 3199 3199 3198 3198 3197 3196 3196 3195 3194 3193 3193 3193 3192 3192 3192 3192 3193 3193 3194 3195 3196 3196 3197 3198 3198 3201 3202 3201 3201 3202 3204 3204 3204
3199 3200 3201 3201 3202 3203 3204 3205 3205 3206 3206 3207 3208 3208 3209 3210 3211 3212 3212 3213 3214 3214 3214 3215 3215 3215 3215 3215 3214 3214 3214 3214 3214 3214 3214 3213 3213 3213 3212 3211 3210 3209 3207 3206 3205 3204 3203 3202 3201 3200 3199 3198 3198 3198 3197 3197 3196 3195 3195 3194 3194 3193 3192 3191 3191 3191 3191 3191 3191 3191 3192 3192 3193 3194 3195 3196 3196 3197 3199 3201 3200 3200 3201 3202 3202
3198 3199 3200 3201 3202 3202 3203 3204 3204 3205 3206 3206 3207 3208 3208 3209 3210 3210 3211 3212 3213 3213 3213 3213 3213 3213 3213 3213 3213 3213 3212 3212 3212 3212 3212 3212 3212 3211 3210 3209 3208 3206 3205 3203 3202 3202 3201 3200 3199 3198 3198 3197 3196 3196 3196 3195 3194 3193 3193 3193 3193 3192 3191 3190 3190 3190 3189 3189 3189 3190 3190 3191 3191 3191 3192 3193 3194 3194 3195 3197 3198 3198 3198 3199 3199
3198 3198 3199 3200 3201 3202 3203 3203 3204 3204 3205 3206 3207 3207 3207 3208 3209 3209 3210 3210 3211 3211 3212 3212 3211 3212 3212 3211 3211 3211 3211 3211 3211 3211 3210 3210 3210 3209 3208 3207 3205 3204 3203 3201 3200 3200 3199 3198 3198 3197 3196 3196 3195 3194 3194 3193 3193 3191 3191 3191 3191 3191 3190 3190 3189 3189 3188 3188 3188 3188 3188 3189 3189 3189 3189 3190 3191 3192 3192 3193 3195 3195 3195 3195 3196
3197 3198 3199 3199 3200 3201 3202 3203 3203 3204 3205 3205 3206 3206 3206 3207 3208 3208 3209 3209 3209 3210 3210 3210 3210 3210 3210 3210 3210 3210 3210 3210 3209 3209 3208 3208 3208 3207 3206 3205 3203 3202 3201 3200 3199 3198 3198 3197 3196 3196 3195 3194 3193 3193 3192 3192 3191 3190 3189 3189 3189 3189 3188 3188 3188 3188 3187 3187 3187 3187 3186 3186 3187 3186 3187 3187 3188 3190 3191 3191 3191 3191 3191 3191 3191
3196 3197 3198 3199 3200 3200 3201 3202 3203 3203 3204 3205 3205 3205 3206 3206 3207 3207 3207 3207 3207 3208 3208 3208 3208 3208 3208 3209 3209 3209 3208 3208 3208 3207 3207 3206 3205 3204 3203 3202 3201 3200 3199 3198 3198 3197 3196 3195 3195 3194 3193 3192 3191 3190 3190 3190 3190 3189 3188 3187 3187 3187 3187 3186 3186 3186 3186 3186 3186 3185 3185 3185 3185 3184 3184 3185 3186 3187 3189 3189 3189 3189 3189 3189 3188
3195 3196 3197 3198 3199 3199 3200 3201 3202 3202 3203 3204 3204 3205 3205 3205 3205 3206 3206 3205 3206 3206 3207 3206 3206 3206 3206 3207 3208 3207 3206 3206 3206 3205 3205 3204 3203 3202 3201 3200 3199 3199 3198 3197 3196 3195 3194 3194 3193 3193 3192 3191 3189 3188 3189 3188 3188 3188 3188 3186 3185 3184 3185 3184 3184 3185 3185 3185 3184 3184 3184 3184 3183 3183 3182 3183 3183 3184 3186 3186 3186 3187 3187 3188 3188
3193 3195 3196 3197 3197 3198 3199 3200 3201 3202 3203 3203 3204 3204 3205 3205 3205 3205 3205 3205 3205 3205 3206 3205 3205 3205 3205 3205 3205 3205 3205 3204 3204 3203 3203 3202 3201 3200 3199 3199 3198 3197 3196 3195 3194 3193 3192 3192 3191 3191 3190 3189 3188 3187 3187 3186 3186 3186 3186 3186 3185 3184 3183 3183 3183 3183 3183 3183 3183 3183 3183 3183 3182 3182 3181 3181 3181 3182 3183 3183 3183 3183 3184 3185 3186
3192 3193 3194 3195 3197 3197 3198 3199 3200 3201 3202 3202 3203 3204 3204 3204 3204 3204 3204 3204 3205 3205 3205 3205 3205 3204 3204 3204 3204 3204 3203 3203 3202 3202 3201 3200 3199 3198 3198 3197 3196 3195 3194 3193 3192 3191 3190 3190 3189 3189 3188 3187 3186 3185 3185 3184 3184 3184 3184 3184 3184 3184 3183 3183 3182 3181 3181 3182 3181 3181 3181 3181 3181 3180 3180 3180 3179 3180 3180 3181 3181 3180 3181 3181 3182
3191 3192 3193 3194 3195 3196 3197 3198 3199 3200 3201 3202 3203 3203 3204 3204 3204 3204 3204 3205 3205 3205 3205 3205 3204 3204 3204 3203 3203 3203 3202 3202 3201 3200 3200 3199 3198 3197 3196 3195 3194 3193 3192 3191 3190 3190 3189 3188 3187 3187 3186 3186 3185 3184 3184 3183 3183 3183 3182 3182 3183 3183 3183 3183 3182 3181 3180 3180 3180 3180 3179 3179 3179 3179 3179 3178 3178 3178 3178 3178 3178 3178 3178 3178 3178
3190 3191 3192 3193 3194 3195 3197 3198 3198 3199 3200 3201 3201 3202 3203 3203 3203 3203 3204 3204 3205 3204 3204 3204 3204 3204 3204 3203 3203 3203 3202 3201 3201 3200 3199 3198 3197 3196 3195 3194 3193 3193 3191 3190 3190 3189 3188 3187 3186 3185 3185 3184 3183 3183 3182 3182 3181 3181 3181 3181 3181 3181 3181 3182 3181 3181 3179 3179 3179 3178 3178 3178 3178 3178 3177 3177 3176 3176 3176 3175 3176 3176 3175 3175 3175
3190 3191 3191 3192 3193 3194 3196 3197 3198 3198 3199 3199 3200 3201 3202 3202 3202 3203 3203 3204 3204 3203 3203 3204 3204 3204 3204 3203 3203 3202 3202 3201 3201 3200 3199 3198 3197 3196 3195 3194 3192 3191 3190 3189 3188 3188 3187 3186 3185 3183 3182 3182 3181 3181 3180 3180 3180 3180 3179 3179 3179 3179 3180 3180 3180 3180 3179 3178 3177 3177 3177 3176 3176 3177 3176 3176 3175 3174 3174 3173 3173 3173 3173 3173 3173
3189 3190 3190 3191 3193 3194 3195 3196 3197 3198 3198 3198 3199 3200 3201 3201 3202 3202 3203 3203 3203 3203 3203 3203 3203 3203 3203 3202 3202 3202 3201 3201 3200 3199 3198 3197 3196 3195 3194 3192 3191 3189 3188 3187 3186 3185 3185 3184 3183 3182 3181 3180 3179 3179 3179 3179 3179 3178 3178 3178 3178 3178 3178 3178 3178 3179 3179 3178 3177 3176 3176 3175 3174 3175 3175 3174 3174 3173 3172 3171 3171 3170 3170 3170 3170
3188 3189 3190 3191 3192 3193 3194 3195 3196 3197 3197 3198 3199 3199 3200 3200 3201 3201 3202 3202 3202 3202 3202 3202 3202 3202 3202 3202 3202 3201 3201 3200 3200 3199 3198 3196 3195 3194 3192 3191 3189 3188 3186 3185 3184 3184 3183 3183 3182 3181 3180 3179 3179 3178 3178 3177 3176 3176 3176 3176 3176 3176 3177 3177 3177 3177 3177 3177 3177 3176 3175 3174 3173 3172 3172 3172 3171 3171 3170 3170 3169 3168 3167 3167 3167
3187 3188 3189 3190 3191 3192 3193 3194 3195 3195 3196 3197 3198 3198 3199 3199 3199 3200 3200 3201 3201 3201 3201 3201 3201 3201 3201 3201 3201 3201 3200 3199 3198 3197 3196 3195 3194 3193 3191 3190 3188 3187 3186 3184 3183 3183 3182 3182 3181 3180 3179 3179 3178 3177 3176 3176 3175 3174 3174 3174 3174 3174 3175 3175 3175 3174 3174 3174 3175 3174 3174 3174 3172 3171 3170 3170 3168 3168 3168 3167 3167 3166 3165 3165 3164
3185 3186 3187 3188 3190 3191 3192 3193 3193 3194 3195 3196 3196 3197 3198 3198 3198 3198 3199 3199 3199 3200 3200 3200 3200 3200 3200 3200 3200 3199 3198 3197 3196 3196 3195 3194 3193 3192 3190 3189 3188 3186 3185 3183 3182 3182 3181 3181 3180 3179 3178 3178 3177 3177 3176 3175 3174 3173 3173 3172 3172 3172 3172 3172 3172 3172 3172 3172 3171 3171 3171 3172 3171 3169 3168 3168 3166 3165 3165 3164 3164 3163 3163 3162 3162